Tracking 30074 objects as of 13-Jan-2025
HD Live streaming from Space Station
objects crossing your sky now

COSMOS 397 DEB

Track COSMOS 397 DEB now!
10-day predictions


NORAD ID: 5017
Int'l Code: 1971-015L
Perigee: 554.7 km
Apogee: 1,640.2 km
Inclination: 65.7 °
Period: 107.1 minutes
Semi major axis: 7468 km
RCS: 0.3524 m2 (medium)
Launch date: February 25, 1971
Source: Commonwealth of Independent States (former USSR) (CIS)
Launch site: TYURATAM MISSILE AND SPACE COMPLEX (TTMTR)

Note: This is SATELLITE DEBRIS
Your satellite tracking list
Your tracking list is empty




NASA's NSSDC Master Catalog

Two Line Element Set (TLE):
1 05017U 71015L   25012.86851578  .00003903  00000-0  12988-2 0  9990
2 05017  65.7083 248.7554 0726768   3.1006 357.4194 13.45109206569481
Source of the keplerian elements: AFSPC